Back to catalog

CZ-6A DEB

AlivePO
NORAD 54470·DEBRIS·🇨🇳 China

Launched Nov 11, 2022 from Taiyuan Satellite Launch Center

Loading…

Next Passes (next 24 hours)

TLE

FreshSource: Space-Track

Epoch: Sep 13, 2026, 01:41 UTC

1 54470U 22151GW  26256.07043061  .00005144  00000-0  89391-3 0  9990
2 54470  98.6251 318.7432 0071953  39.8351 320.8102 14.66930844201357

Track CZ-6A DEB in real time with AllMySat

Download on the App Store